This is the latest recevied weather packets stored in our database for station/object KD4WLE. If no packets are shown the sender has not sent any weather packets the latest 10 day(s).
| Time | Temp. | Humidity | Pressure | Rain* | Wind** | Luminosity | Snow |
|---|---|---|---|---|---|---|---|
| 1777570957 | 30° C | 58% | 1012 hPa | 0 mm | - | 384 W/m² | - |
| 1777570653 | 30° C | 58% | 1011.7 hPa | 0 mm | - | 356 W/m² | - |
| 1777570350 | 30° C | 58% | 1011.9 hPa | 0 mm | - | 451 W/m² | - |
| 1777570046 | 30° C | 59% | 1011.6 hPa | 0 mm | - | 395 W/m² | - |
| 1777569742 | 30° C | 59% | 1011.7 hPa | 0 mm | - | 687 W/m² | - |
| 1777569437 | 31.11° C | 58% | 1011.8 hPa | 0 mm | - | 527 W/m² | - |
| 1777569135 | 30.56° C | 59% | 1011.9 hPa | 0 mm | - | 732 W/m² | - |
| 1777568831 | 30° C | 61% | 1011.9 hPa | 0 mm | - | 437 W/m² | - |
| 1777568529 | 30° C | 62% | 1012 hPa | 0 mm | - | 377 W/m² | - |
| 1777568225 | 31.11° C | 59% | 1011.9 hPa | 0 mm | - | 431 W/m² | - |
| 1777567922 | 30° C | 61% | 1012.2 hPa | 0 mm | - | 896 W/m² | - |
| 1777567618 | 30° C | 61% | 1012.1 hPa | 0 mm | - | 795 W/m² | - |
| 1777567315 | 30.56° C | 60% | 1012.3 hPa | 0 mm | - | 789 W/m² | - |
| 1777567014 | 30.56° C | 60% | 1012.1 hPa | 0 mm | - | 789 W/m² | - |
| 1777566711 | 30° C | 61% | 1011.9 hPa | 0 mm | - | 770 W/m² | - |
| 1777566409 | 30° C | 63% | 1012.1 hPa | 0 mm | - | 762 W/m² | - |
| 1777566106 | 30° C | 65% | 1012.3 hPa | 0 mm | - | 776 W/m² | - |
| 1777565801 | 28.89° C | 66% | 1012.2 hPa | 0 mm | - | 800 W/m² | - |
| 1777565498 | 30° C | 67% | 1012.6 hPa | 0 mm | - | 808 W/m² | - |
| 1777565194 | 29.44° C | 69% | 1012.1 hPa | 0 mm | - | 646 W/m² | - |
| 1777564890 | 28.33° C | 70% | 1012.6 hPa | 0 mm | - | 408 W/m² | - |
| 1777564585 | 28.33° C | 71% | 1012.7 hPa | 0 mm | - | 498 W/m² | - |
| 1777564281 | 28.33° C | 71% | 1012.7 hPa | 0 mm | - | 775 W/m² | - |
| 1777563978 | 28.89° C | 71% | 1012.5 hPa | 0 mm | - | 740 W/m² | - |
| 1777563674 | 28.89° C | 72% | 1012.7 hPa | 0 mm | - | 748 W/m² | - |
* Rain latest hour (hover to see other rain measurements)
** Current wind speed in m/s (hover to see current wind gust speed)